Vorticity
6 4 4 5 4 3 3 3 3 4 3 4 3 3 4 6 7 7 7 9 10 10 10 10 8 7 6 6 5 5 5 5 6 6 6 6 6 6 6 6 6 6 6
7 6 5 6 5 4 4 4 4 4 4 3 4 6 5 7 8 7 8 9 9 9 9 8 8 7 7 6 5 5 6 6 5 4 4 4 4 5 5 6 7 8 8
7 6 7 6 4 5 5 6 5 4 3 4 7 7 8 8 8 9 9 9 9 8 8 8 8 8 7 7 6 6 5 4 4 4 4 4 4 4 4 4 4 5 6
9 10 9 7 7 7 7 5 4 3 4 6 8 8 9 9 9 8 9 9 9 9 9 10 10 9 8 8 7 6 6 5 5 4 4 4 5 5 4 4 4 4 4
10 11 9 10 7 6 5 4 3 4 5 7 9 9 9 9 8 8 7 6 6 6 7 7 7 8 8 8 9 9 9 8 9 8 8 8 8 8 8 8 8 7 7
8 6 8 6 6 7 3 3 3 5 8 9 9 9 9 8 7 6 5 4 3 4 4 4 5 6 7 7 7 7 7 7 8 8 8 9 9 9 9 9 9 9 9
7 4 2 6 4 4 1 5 4 7 11 9 9 9 8 7 5 5 4 3 4 4 4 5 5 5 6 7 7 7 7 8 8 8 8 8 9 9 9 9 9 9 9
5 5 7 5 7 5 7 7 7 10 10 10 8 7 7 6 4 4 3 4 4 4 5 6 6 6 6 7 8 8 8 8 9 9 9 10 9 9 8 7 7 6 6
3 5 6 7 7 7 6 7 6 8 11 9 10 7 6 4 4 2 3 3 4 4 6 6 6 7 6 8 9 9 9 10 10 10 9 7 6 5 5 5 5 5 5
6 6 8 4 5 10 6 5 4 10 7 11 9 7 5 4 3 4 2 3 2 3 4 6 7 6 6 9 10 10 11 11 9 7 6 5 5 5 5 5 5 5 5
3 11 3 5 8 9 5 4 4 7 4 11 9 8 5 4 3 3 3 2 2 3 3 4 7 6 8 10 9 10 9 7 6 5 5 6 6 6 7 7 7 6 5
8 7 14 1 -1 2 29 -3 2 -4 -1 10 5 7 6 4 3 3 3 2 1 2 2 5 7 7 8 10 11 8 6 5 6 6 6 7 7 6 6 5 5 5 5
6 6 10 5 4 2 17 3 -4 6 10 3 1 6 8 4 2 4 3 2 1 1 2 1 8 8 9 10 9 7 6 6 7 7 7 7 6 5 5 5 5 7 10
9 9 -2 13 7 1 11 -1 8 -13 3 10 11 7 6 5 3 3 4 2 1 1 6 6 12 11 12 10 7 6 6 7 7 6 5 5 7 8 10 12 15 17 18
3 9 8 7 15 5 0 36 5 10 -8 11 19 -2 9 3 3 2 4 2 2 0 1 11 12 11 10 8 7 7 8 6 5 5 7 9 11 15 17 19 19 19 21
10 3 -1 16 11 4 3 27 -3 -12 16 -1 4 19 13 5 3 3 4 2 -3 -1 0 12 10 9 7 8 8 7 6 6 8 10 12 16 18 19 17 16 16 16 13
2 5 7 16 11 1 8 21 -11 -10 -1 13 9 12 8 5 4 3 1 0 6 3 9 13 9 7 8 8 7 6 8 10 12 18 21 22 18 16 13 12 11 10 10
17 13 6 7 9 5 6 22 16 24 2 23 7 19 4 3 2 0 -2 12 3 8 14 11 7 8 9 7 6 9 10 15 19 21 16 13 14 10 10 11 11 11 12
12 10 9 13 8 15 18 -4 -9 21 -2 6 2 3 3 2 2 -1 10 3 10 14 10 8 8 8 6 9 10 11 15 20 18 15 15 13 11 11 12 13 10 10 10
7 11 13 11 5 14 14 14 20 8 9 7 11 2 2 3 0 8 6 16 12 9 8 9 8 6 9 10 12 16 19 15 15 14 10 12 13 12 14 13 12 12 13
12 29 4 9 13 10 2 27 4 5 10 9 2 2 1 1 7 10 15 10 8 8 9 7 7 9 12 14 15 14 17 12 13 12 15 13 13 12 12 10 12 14 14
14 0 17 11 13 4 20 31 -0 23 10 1 -0 0 8 6 15 10 9 8 8 9 7 8 10 12 15 15 15 14 13 11 12 12 12 9 10 12 13 15 19 17 16
14 14 9 12 5 17 10 21 20 5 3 2 4 6 12 11 9 8 8 8 9 7 10 11 12 15 14 14 14 11 11 14 12 12 11 12 10 14 12 9 11 14 15
18 2 9 9 37 26 24 8 2 5 4 3 11 10 8 8 8 8 8 8 6 10 14 13 18 16 16 15 10 12 13 9 9 8 11 14 9 8 8 7 12 14 18
15 16 17 26 11 6 5 2 3 5 10 8 9 9 8 6 8 9 7 7 11 16 12 18 16 18 15 11 11 10 9 8 8 8 12 11 8 8 8 8 13 15 16
49 9 6 6 3 3 5 7 7 9 10 9 9 8 8 8 7 8 9 11 14 12 16 19 21 17 11 12 10 8 9 7 8 9 11 7 8 8 11 9 13 12 16
Height
3156 3156 3157 3157 3157 3157 3156 3156 3155 3154 3154 3153 3151 3150 3148 3146 3144 3143 3141 3140 3138 3137 3136 3135 3135 3134 3133 3132 3132 3131 3130 3130 3129 3129 3129 3129 3128 3127 3126 3126 3126 3126 3126
3152 3153 3153 3153 3153 3153 3153 3153 3153 3152 3151 3150 3148 3147 3146 3144 3142 3140 3139 3138 3136 3134 3133 3132 3132 3131 3130 3129 3128 3128 3127 3127 3126 3126 3125 3124 3124 3123 3122 3121 3121 3120 3120
3147 3148 3149 3150 3149 3150 3149 3150 3149 3148 3147 3146 3144 3143 3142 3141 3140 3138 3136 3135 3133 3132 3131 3130 3129 3128 3127 3126 3125 3124 3123 3122 3121 3121 3120 3119 3118 3117 3116 3116 3115 3115 3114
3143 3143 3144 3145 3146 3146 3145 3145 3145 3144 3143 3142 3140 3139 3138 3137 3137 3135 3134 3133 3131 3129 3128 3127 3126 3125 3124 3123 3121 3120 3119 3117 3116 3116 3114 3113 3112 3111 3110 3109 3108 3107 3107
3138 3139 3139 3140 3141 3141 3141 3141 3140 3140 3139 3137 3136 3135 3134 3134 3133 3132 3131 3130 3128 3127 3125 3124 3122 3121 3119 3118 3116 3114 3112 3111 3109 3108 3107 3106 3104 3103 3102 3101 3100 3100 3099
3133 3134 3135 3135 3135 3136 3137 3136 3136 3135 3134 3133 3132 3131 3131 3131 3130 3129 3128 3127 3126 3124 3122 3120 3118 3117 3115 3113 3110 3108 3105 3103 3101 3099 3098 3097 3096 3095 3093 3092 3091 3090 3090
3128 3129 3129 3130 3130 3131 3131 3131 3130 3130 3129 3128 3128 3127 3127 3127 3127 3126 3125 3123 3122 3120 3118 3116 3114 3112 3110 3107 3104 3101 3099 3096 3094 3091 3089 3088 3086 3085 3084 3083 3082 3081 3080
3121 3122 3123 3124 3125 3125 3125 3125 3125 3124 3123 3123 3123 3122 3123 3124 3123 3122 3120 3119 3117 3115 3113 3111 3109 3107 3104 3101 3098 3095 3092 3089 3086 3082 3080 3078 3076 3075 3073 3072 3071 3070 3069
3114 3116 3116 3117 3118 3118 3119 3119 3119 3119 3118 3118 3118 3119 3118 3118 3117 3117 3115 3114 3112 3110 3107 3104 3102 3099 3096 3093 3090 3087 3083 3080 3077 3074 3072 3069 3067 3065 3063 3062 3061 3059 3057
3107 3109 3110 3111 3111 3112 3113 3113 3114 3114 3113 3113 3113 3114 3113 3113 3112 3111 3110 3107 3106 3104 3101 3098 3094 3091 3088 3084 3081 3077 3074 3072 3069 3066 3064 3061 3058 3055 3053 3051 3050 3048 3046
3099 3101 3103 3104 3104 3106 3107 3107 3108 3108 3108 3109 3108 3108 3108 3107 3106 3105 3103 3102 3100 3097 3094 3090 3087 3083 3079 3076 3072 3068 3065 3062 3060 3057 3054 3051 3048 3044 3041 3039 3036 3033 3031
3091 3093 3095 3097 3097 3099 3100 3101 3101 3101 3102 3103 3103 3102 3102 3101 3101 3099 3097 3095 3093 3091 3087 3082 3078 3074 3071 3067 3063 3059 3055 3052 3049 3046 3043 3039 3036 3032 3029 3025 3021 3018 3015
3081 3085 3087 3090 3092 3092 3092 3094 3095 3094 3096 3096 3096 3095 3095 3094 3093 3093 3091 3088 3086 3085 3083 3078 3072 3067 3061 3057 3054 3049 3046 3042 3038 3034 3030 3026 3022 3018 3013 3008 3003 2999 2995
3074 3077 3079 3081 3083 3084 3085 3086 3088 3087 3088 3088 3087 3087 3086 3086 3085 3085 3083 3080 3076 3074 3072 3069 3064 3058 3053 3048 3044 3039 3035 3030 3025 3021 3016 3011 3006 3001 2995 2990 2986 2981 2977
3063 3067 3070 3073 3075 3076 3078 3078 3078 3078 3080 3079 3079 3079 3078 3078 3077 3076 3074 3071 3066 3061 3058 3058 3053 3049 3043 3039 3033 3027 3022 3017 3012 3006 3001 2995 2989 2983 2978 2973 2969 2965 2962
3054 3058 3061 3064 3066 3068 3069 3069 3070 3068 3072 3072 3071 3070 3070 3070 3069 3067 3064 3061 3057 3052 3045 3041 3038 3035 3032 3027 3021 3015 3009 3003 2997 2990 2984 2978 2972 2967 2961 2957 2954 2950 2948
3046 3050 3053 3055 3057 3060 3060 3060 3061 3058 3062 3061 3061 3060 3061 3062 3060 3057 3055 3052 3047 3041 3035 3030 3025 3021 3017 3013 3007 3001 2995 2988 2982 2977 2971 2964 2959 2953 2949 2945 2942 2939 2936
3036 3041 3044 3046 3048 3049 3051 3051 3051 3052 3049 3050 3053 3053 3052 3053 3050 3048 3045 3042 3036 3030 3024 3018 3013 3009 3005 3000 2993 2987 2981 2976 2968 2962 2957 2952 2947 2941 2938 2935 2931 2928 2925
3027 3031 3034 3035 3039 3041 3041 3042 3040 3044 3042 3046 3044 3045 3043 3043 3041 3038 3034 3031 3026 3020 3014 3008 3002 2997 2993 2988 2980 2975 2968 2962 2956 2951 2946 2941 2936 2931 2929 2925 2921 2917 2913
3018 3019 3023 3028 3030 3031 3033 3033 3032 3031 3035 3034 3035 3035 3035 3033 3031 3027 3023 3019 3014 3009 3003 2997 2991 2985 2979 2974 2967 2960 2956 2951 2946 2941 2936 2931 2927 2923 2920 2915 2910 2906 2902
3011 3011 3016 3019 3021 3024 3025 3022 3022 3027 3026 3027 3027 3028 3026 3024 3020 3016 3012 3008 3002 2997 2992 2985 2979 2973 2968 2962 2955 2948 2942 2937 2934 2931 2928 2925 2920 2915 2911 2904 2899 2895 2890
3005 3006 3009 3014 3017 3018 3018 3016 3016 3020 3020 3019 3019 3019 3016 3013 3009 3005 3001 2995 2990 2984 2979 2973 2967 2961 2956 2950 2942 2937 2931 2927 2922 2922 2918 2916 2908 2904 2899 2894 2890 2884 2879
2994 2999 3004 3007 3008 3009 3009 3011 3012 3013 3013 3012 3011 3010 3007 3003 2998 2994 2989 2983 2978 2974 2968 2962 2956 2950 2943 2937 2932 2927 2924 2920 2916 2912 2907 2904 2894 2891 2887 2884 2880 2874 2869
2993 2998 2999 3002 3003 3004 3008 3004 3006 3006 3006 3005 3004 3001 2996 2993 2989 2983 2977 2972 2967 2964 2959 2953 2947 2941 2934 2928 2923 2918 2914 2910 2907 2902 2897 2889 2885 2880 2877 2874 2870 2865 2859
2989 2991 2996 3001 3002 3003 3001 3002 3003 3001 3000 2998 2995 2991 2987 2982 2977 2972 2967 2961 2958 2954 2948 2943 2936 2930 2924 2920 2915 2910 2907 2902 2897 2893 2889 2877 2876 2870 2865 2862 2860 2856 2850
2989 2992 2995 2997 2995 2998 2999 2998 2996 2995 2993 2989 2985 2981 2975 2969 2964 2960 2956 2951 2947 2942 2937 2932 2926 2922 2917 2913 2909 2903 2898 2893 2887 2881 2881 2867 2866 2859 2850 2850 2847 2842 2838